| time (UTC) | temp F | wind direction | speed MPH | gust MPH | rain 1hr in | rain 24hr in | rain mn in | humidity % | barometer mb |
| 20260508105717 | 52 | 307 | 7.0 | 8.0 | 0.00 | 0.33 | 0.33 | 94 | 998.9 |
| 20260508105215 | 52 | 246 | 4.0 | 7.0 | 0.00 | 0.33 | 0.33 | 94 | 998.9 |
| 20260508104712 | 52 | 65 | 3.0 | 6.0 | 0.00 | 0.33 | 0.33 | 95 | 998.7 |
| 20260508104209 | 52 | 290 | 5.0 | 8.0 | 0.05 | 0.33 | 0.33 | 96 | 998.7 |
| 20260508103706 | 51 | 235 | 2.0 | 3.0 | 0.05 | 0.33 | 0.33 | 96 | 998.6 |
| 20260508103203 | 52 | 289 | 4.0 | 6.0 | 0.00 | 0.32 | 0.32 | 96 | 998.6 |
| 20260508102700 | 52 | 261 | 4.0 | 6.0 | 0.07 | 0.32 | 0.32 | 96 | 998.4 |
| 20260508102158 | 52 | 256 | 4.0 | 8.0 | 0.07 | 0.32 | 0.32 | 95 | 998.4 |
| 20260508101655 | 52 | 177 | 2.0 | 3.0 | 0.00 | 0.31 | 0.31 | 96 | 998.2 |
| 20260508101153 | 52 | 334 | 7.0 | 15.0 | 0.05 | 0.31 | 0.31 | 95 | 998.3 |
| 20260508100650 | 52 | 336 | 8.0 | 10.0 | 0.05 | 0.31 | 0.31 | 94 | 998.3 |
| 20260508100148 | 52 | 358 | 12.0 | 17.0 | 0.00 | 0.30 | 0.30 | 93 | 998.0 |
| 20260508095644 | 52 | 310 | 6.0 | 11.0 | 0.00 | 0.30 | 0.30 | 93 | 998.1 |
| 20260508095142 | 52 | 295 | 3.0 | 6.0 | 0.00 | 0.30 | 0.30 | 93 | 997.8 |
| 20260508094638 | 52 | 311 | 5.0 | 7.0 | 0.00 | 0.30 | 0.30 | 93 | 997.7 |
| 20260508094135 | 52 | 217 | 13.0 | 16.0 | 0.07 | 0.30 | 0.30 | 93 | 997.9 |
| 20260508093632 | 53 | 341 | 3.0 | 4.0 | 0.07 | 0.30 | 0.30 | 93 | 997.6 |
| 20260508093130 | 53 | 322 | 5.0 | 8.0 | 0.00 | 0.29 | 0.29 | 93 | 997.6 |
| 20260508092627 | 53 | 312 | 4.0 | 8.0 | 0.00 | 0.29 | 0.29 | 94 | 997.5 |
| 20260508092126 | 53 | 256 | 4.0 | 4.0 | 0.00 | 0.29 | 0.29 | 94 | 997.7 |
| 20260508091622 | 53 | 124 | 3.0 | 7.0 | 0.00 | 0.29 | 0.29 | 93 | 997.6 |
| 20260508091119 | 53 | 287 | 2.0 | 6.0 | 0.00 | 0.29 | 0.29 | 92 | 997.5 |
| 20260508090617 | 53 | 285 | 3.0 | 6.0 | 0.00 | 0.29 | 0.29 | 92 | 997.6 |
| 20260508090114 | 54 | 203 | 4.0 | 7.0 | 0.00 | 0.29 | 0.29 | 91 | 997.5 |
| 20260508085610 | 54 | 336 | 3.0 | 4.0 | 0.00 | 0.29 | 0.29 | 91 | 997.5 |
| 20260508085108 | 54 | 297 | 8.0 | 10.0 | 0.00 | 0.29 | 0.29 | 91 | 997.5 |
| 20260508084604 | 54 | 216 | 4.0 | 8.0 | 0.00 | 0.29 | 0.29 | 91 | 997.5 |
| 20260508084102 | 53 | 237 | 10.0 | 14.0 | 0.00 | 0.29 | 0.29 | 91 | 997.2 |
| 20260508083559 | 54 | 235 | 6.0 | 8.0 | 0.00 | 0.29 | 0.29 | 92 | 997.2 |
| 20260508083056 | 54 | 231 | 4.0 | 7.0 | 0.00 | 0.29 | 0.29 | 92 | 997.4 |
| 20260508082551 | 54 | 307 | 6.0 | 7.0 | 0.00 | 0.29 | 0.29 | 91 | 997.1 |
| 20260508082049 | 54 | 320 | 3.0 | 4.0 | 0.00 | 0.29 | 0.29 | 91 | 997.1 |
| 20260508081546 | 54 | 296 | 4.0 | 7.0 | 0.00 | 0.29 | 0.29 | 91 | 996.9 |
| 20260508081042 | 54 | 329 | 5.0 | 6.0 | 0.00 | 0.29 | 0.29 | 92 | 996.9 |
| 20260508080540 | 54 | 316 | 6.0 | 9.0 | 0.00 | 0.29 | 0.29 | 93 | 996.9 |
| 20260508080037 | 54 | 155 | 2.0 | 3.0 | 0.00 | 0.29 | 0.29 | 93 | 996.9 |
| 20260508075533 | 55 | 321 | 5.0 | 7.0 | 0.00 | 0.29 | 0.29 | 92 | 996.7 |
| 20260508075031 | 55 | 308 | 3.0 | 6.0 | 0.00 | 0.29 | 0.29 | 92 | 996.8 |
| 20260508074529 | 55 | 312 | 6.0 | 9.0 | 0.00 | 0.29 | 0.29 | 92 | 996.7 |
| 20260508074025 | 55 | 230 | 3.0 | 4.0 | 0.00 | 0.29 | 0.29 | 92 | 996.8 |
| 20260508073523 | 54 | 270 | 9.0 | 10.0 | 0.00 | 0.29 | 0.29 | 92 | 997.0 |
| 20260508073021 | 54 | 298 | 7.0 | 10.0 | 0.00 | 0.29 | 0.29 | 93 | 997.1 |
| 20260508072516 | 55 | 266 | 5.0 | 9.0 | 0.00 | 0.29 | 0.29 | 94 | 997.0 |
| 20260508072013 | 55 | 302 | 10.0 | 16.0 | 0.00 | 0.29 | 0.29 | 94 | 997.0 |
| 20260508071511 | 55 | 332 | 6.0 | 10.0 | 0.00 | 0.29 | 0.29 | 93 | 997.0 |
| 20260508071008 | 55 | 259 | 2.0 | 4.0 | 0.00 | 0.29 | 0.29 | 94 | 997.0 |
| 20260508070506 | 55 | 346 | 5.0 | 8.0 | 0.00 | 0.29 | 0.29 | 95 | 997.1 |
| 20260508070005 | 55 | 312 | 4.0 | 4.0 | 0.05 | 0.29 | 0.29 | 95 | 997.1 |
| 20260508065502 | 55 | 291 | 3.0 | 4.0 | 0.17 | 0.29 | 0.29 | 96 | 997.2 |
| 20260508065000 | 55 | 152 | 3.0 | 4.0 | 0.12 | 0.28 | 0.28 | 96 | 997.1 |
| 20260508064457 | 55 | 113 | 2.0 | 3.0 | 0.12 | 0.26 | 0.26 | 95 | 997.2 |
| 20260508063954 | 56 | 328 | 5.0 | 7.0 | 0.12 | 0.26 | 0.26 | 95 | 997.1 |
| 20260508063451 | 56 | 300 | 2.0 | 2.0 | 0.00 | 0.24 | 0.24 | 95 | 997.0 |
| 20260508062949 | 56 | 328 | 6.0 | 10.0 | 0.00 | 0.24 | 0.24 | 94 | 997.2 |
| 20260508062447 | 56 | 271 | 3.0 | 3.0 | 0.00 | 0.24 | 0.24 | 96 | 997.1 |
| 20260508061943 | 56 | 286 | 4.0 | 6.0 | 0.07 | 0.24 | 0.24 | 96 | 997.3 |
| 20260508061442 | 56 | 313 | 7.0 | 9.0 | 0.07 | 0.24 | 0.24 | 97 | 996.9 |
| 20260508060937 | 56 | 283 | 5.0 | 7.0 | 0.12 | 0.23 | 0.23 | 97 | 997.0 |
| 20260508060435 | 56 | 279 | 3.0 | 4.0 | 0.24 | 0.23 | 0.23 | 97 | 996.9 |
| 20260508055931 | 57 | 348 | 4.0 | 7.0 | 0.19 | 0.21 | 0.21 | 97 | 997.0 |
| 20260508055428 | 57 | 232 | 4.0 | 6.0 | 0.17 | 0.18 | 0.18 | 97 | 996.8 |
| 20260508054924 | 57 | 343 | 7.0 | 10.0 | 0.24 | 0.17 | 0.17 | 97 | 996.7 |
| 20260508054422 | 57 | 271 | 6.0 | 8.0 | 0.17 | 0.16 | 0.16 | 97 | 996.9 |
| 20260508053918 | 57 | 243 | 2.0 | 3.0 | 0.42 | 0.13 | 0.13 | 97 | 997.0 |
| 20260508053415 | 57 | 309 | 2.0 | 3.0 | 0.42 | 0.12 | 0.12 | 97 | 997.1 |
| 20260508052913 | 57 | 301 | 4.0 | 6.0 | 0.12 | 0.06 | 0.06 | 97 | 997.3 |
| 20260508052411 | 57 | 10 | 4.0 | 4.0 | 0.12 | 0.05 | 0.05 | 97 | 997.1 |
| 20260508051906 | 57 | 341 | 3.0 | 3.0 | 0.12 | 0.04 | 0.04 | 96 | 997.1 |
| 20260508051402 | 57 | 311 | 5.0 | 7.0 | 0.12 | 0.03 | 0.03 | 96 | 997.4 |
| 20260508050858 | 57 | 332 | 3.0 | 7.0 | 0.12 | 0.02 | 0.02 | 95 | 997.2 |
| 20260508050356 | 58 | 340 | 6.0 | 8.0 | 0.05 | 0.01 | 0.01 | 94 | 997.1 |
| 20260508045851 | 58 | 59 | 4.0 | 6.0 | 0.00 | 0.00 | 0.00 | 92 | 997.3 |
| 20260508045350 | 58 | 324 | 2.0 | 6.0 | 0.00 | 0.00 | 0.00 | 90 | 997.3 |
| 20260508044847 | 59 | 328 | 5.0 | 7.0 | 0.00 | 0.00 | 0.00 | 89 | 997.2 |
| 20260508044343 | 59 | 232 | 5.0 | 8.0 | 0.00 | 0.00 | 0.00 | 89 | 997.3 |
| 20260508043839 | 59 | 326 | 5.0 | 8.0 | 0.00 | 0.00 | 0.00 | 88 | 997.3 |
| 20260508043337 | 59 | 345 | 4.0 | 6.0 | 0.00 | 0.00 | 0.00 | 88 | 997.4 |
| 20260508042833 | 59 | 149 | 2.0 | 4.0 | 0.00 | 0.00 | 0.00 | 88 | 997.4 |
| 20260508042331 | 59 | 301 | 3.0 | 3.0 | 0.00 | 0.00 | 0.00 | 88 | 997.2 |
| 20260508041827 | 59 | 139 | 2.0 | 3.0 | 0.00 | 0.00 | 0.00 | 87 | 997.3 |
| 20260508041324 | 59 | 314 | 11.0 | 18.0 | 0.00 | 0.00 | 0.00 | 87 | 997.2 |
| 20260508040820 | 59 | 198 | 2.0 | 3.0 | 0.00 | 0.00 | 0.00 | 87 | 997.2 |
| 20260508040318 | 59 | 329 | 9.0 | 14.0 | 0.00 | 0.00 | 0.00 | 87 | 997.4 |
| 20260508035815 | 59 | 347 | 9.0 | 9.0 | 0.00 | 0.00 | 0.00 | 87 | 997.1 |
| 20260508035312 | 59 | 241 | 5.0 | 6.0 | 0.00 | 0.00 | 0.00 | 87 | 997.6 |
| 20260508034809 | 59 | 0 | 8.0 | 10.0 | 0.00 | 0.00 | 0.00 | 87 | 997.5 |
| 20260508034306 | 59 | 305 | 6.0 | 10.0 | 0.00 | 0.00 | 0.00 | 87 | 997.4 |
| 20260508033803 | 59 | 118 | 1.0 | 1.0 | 0.00 | 0.00 | 0.00 | 87 | 997.3 |
| 20260508033301 | 59 | 5 | 3.0 | 4.0 | 0.00 | 0.00 | 0.00 | 87 | 997.2 |
| 20260508032758 | 59 | 315 | 7.0 | 9.0 | 0.00 | 0.00 | 0.00 | 85 | 997.4 |
| 20260508032255 | 59 | 311 | 4.0 | 6.0 | 0.00 | 0.00 | 0.00 | 85 | 997.4 |
| 20260508031752 | 59 | 316 | 9.0 | 14.0 | 0.00 | 0.00 | 0.00 | 85 | 997.2 |
| 20260508031248 | 59 | 339 | 5.0 | 8.0 | 0.00 | 0.00 | 0.00 | 84 | 997.6 |
| 20260508030745 | 60 | 275 | 3.0 | 4.0 | 0.00 | 0.00 | 0.00 | 85 | 997.5 |
| 20260508030242 | 60 | 257 | 3.0 | 6.0 | 0.00 | 0.84 | 0.84 | 84 | 997.5 |
| 20260508025739 | 60 | 73 | 2.0 | 4.0 | 0.00 | 0.84 | 0.84 | 84 | 997.4 |
| 20260508025236 | 60 | 264 | 3.0 | 6.0 | 0.00 | 0.84 | 0.84 | 83 | 997.3 |
| 20260508024732 | 60 | 331 | 1.0 | 2.0 | 0.00 | 0.84 | 0.84 | 83 | 997.2 |
| 20260508024229 | 60 | 202 | 1.0 | 1.0 | 0.00 | 0.84 | 0.84 | 83 | 997.1 |
| 20260508023726 | 60 | 290 | 4.0 | 7.0 | 0.00 | 0.84 | 0.84 | 82 | 997.2 |
| 20260508023224 | 60 | 292 | 7.0 | 9.0 | 0.00 | 0.84 | 0.84 | 82 | 997.3 |
| 20260508022719 | 60 | 319 | 9.0 | 14.0 | 0.00 | 0.84 | 0.84 | 82 | 997.6 |
| 20260508022216 | 60 | 322 | 2.0 | 3.0 | 0.00 | 0.84 | 0.84 | 82 | 997.9 |
| 20260508021713 | 60 | 322 | 5.0 | 8.0 | 0.00 | 0.84 | 0.84 | 81 | 997.5 |
| 20260508021208 | 60 | 162 | 1.0 | 1.0 | 0.00 | 0.84 | 0.84 | 81 | 997.7 |
| 20260508020706 | 60 | 315 | 4.0 | 6.0 | 0.00 | 0.84 | 0.84 | 81 | 998.0 |
| 20260508020203 | 60 | 277 | 5.0 | 7.0 | 0.00 | 0.84 | 0.84 | 81 | 998.1 |
| 20260508015700 | 60 | 239 | 2.0 | 3.0 | 0.00 | 0.84 | 0.84 | 81 | 998.3 |
| 20260508015157 | 60 | 315 | 3.0 | 3.0 | 0.00 | 0.84 | 0.84 | 80 | 998.4 |
| 20260508014653 | 60 | 275 | 3.0 | 6.0 | 0.00 | 0.84 | 0.84 | 81 | 998.1 |
| 20260508014149 | 60 | 283 | 4.0 | 6.0 | 0.00 | 0.84 | 0.84 | 80 | 998.2 |
| 20260508013646 | 60 | 179 | 1.0 | 3.0 | 0.00 | 0.84 | 0.84 | 81 | 998.2 |
| 20260508013142 | 60 | 295 | 5.0 | 7.0 | 0.00 | 0.84 | 0.84 | 81 | 998.1 |
| 20260508012640 | 60 | 308 | 3.0 | 4.0 | 0.00 | 0.84 | 0.84 | 81 | 998.3 |
| 20260508012137 | 60 | 255 | 3.0 | 4.0 | 0.00 | 0.84 | 0.84 | 82 | 998.5 |
| 20260508011636 | 60 | 351 | 2.0 | 4.0 | 0.00 | 0.84 | 0.84 | 81 | 998.4 |
| 20260508011133 | 60 | 309 | 5.0 | 8.0 | 0.00 | 0.84 | 0.84 | 81 | 998.7 |
| 20260508010629 | 60 | 288 | 3.0 | 3.0 | 0.00 | 0.84 | 0.84 | 81 | 998.8 |
| 20260508010127 | 60 | 323 | 5.0 | 6.0 | 0.00 | 0.84 | 0.84 | 81 | 999.0 |
| 20260508005624 | 60 | 288 | 4.0 | 6.0 | 0.00 | 0.84 | 0.84 | 80 | 999.1 |
| 20260508005120 | 60 | 296 | 4.0 | 6.0 | 0.00 | 0.84 | 0.84 | 80 | 999.3 |
| 20260508004616 | 60 | 329 | 5.0 | 8.0 | 0.00 | 0.84 | 0.84 | 80 | 999.3 |
| 20260508004113 | 60 | 0 | 5.0 | 9.0 | 0.00 | 0.84 | 0.84 | 82 | 999.0 |
| 20260508003609 | 60 | 316 | 6.0 | 8.0 | 0.00 | 0.84 | 0.84 | 82 | 999.2 |
| 20260508003107 | 60 | 271 | 4.0 | 6.0 | 0.00 | 0.84 | 0.84 | 83 | 999.2 |
| 20260508002603 | 61 | 243 | 4.0 | 7.0 | 0.00 | 0.84 | 0.84 | 83 | 999.1 |
| 20260508002101 | 61 | 259 | 4.0 | 4.0 | 0.00 | 0.84 | 0.84 | 83 | 999.0 |
| 20260508001556 | 61 | 334 | 11.0 | 15.0 | 0.00 | 0.84 | 0.84 | 83 | 999.2 |
| 20260508001053 | 61 | 289 | 2.0 | 2.0 | 0.00 | 0.84 | 0.84 | 82 | 999.7 |
| 20260508000549 | 61 | 356 | 7.0 | 8.0 | 0.00 | 0.84 | 0.84 | 82 | 999.6 |
| 20260508000046 | 61 | 314 | 6.0 | 7.0 | 0.00 | 0.84 | 0.84 | 81 | 999.8 |
| 20260507235543 | 61 | 234 | 4.0 | 4.0 | 0.00 | 0.84 | 0.84 | 82 | 999.8 |
| 20260507235040 | 61 | 222 | 6.0 | 10.0 | 0.00 | 0.84 | 0.84 | 83 | 999.9 |
| 20260507234536 | 61 | 339 | 9.0 | 10.0 | 0.00 | 0.84 | 0.84 | 83 | 999.9 |
| 20260507234033 | 61 | 323 | 9.0 | 13.0 | 0.00 | 0.84 | 0.84 | 83 | 1000.0 |
| 20260507233530 | 61 | 309 | 6.0 | 8.0 | 0.00 | 0.84 | 0.84 | 83 | 1000.2 |
| 20260507233029 | 61 | 5 | 10.0 | 14.0 | 0.00 | 0.84 | 0.84 | 84 | 1000.2 |
| 20260507232524 | 62 | 276 | 3.0 | 4.0 | 0.00 | 0.84 | 0.84 | 84 | 1000.3 |
| 20260507232022 | 62 | 191 | 2.0 | 3.0 | 0.00 | 0.84 | 0.84 | 85 | 1000.4 |
| 20260507231518 | 62 | 308 | 6.0 | 9.0 | 0.00 | 0.84 | 0.84 | 85 | 1000.4 |
| 20260507231016 | 62 | 34 | 4.0 | 6.0 | 0.00 | 0.84 | 0.84 | 85 | 1000.5 |
| 20260507230512 | 62 | 239 | 5.0 | 7.0 | 0.00 | 0.84 | 0.84 | 85 | 1000.5 |
| 20260507230009 | 62 | 316 | 10.0 | 14.0 | 0.00 | 0.84 | 0.84 | 85 | 1000.9 |
| 20260507225504 | 62 | 351 | 2.0 | 3.0 | 0.00 | 0.84 | 0.84 | 86 | 1000.8 |
| 20260507225000 | 62 | 28 | 3.0 | 3.0 | 0.00 | 0.84 | 0.84 | 86 | 1000.7 |
| 20260507224456 | 62 | 327 | 3.0 | 4.0 | 0.00 | 0.84 | 0.84 | 86 | 1000.7 |
| 20260507223953 | 62 | 334 | 4.0 | 4.0 | 0.00 | 0.84 | 0.84 | 87 | 1000.8 |
| 20260507223449 | 62 | 271 | 5.0 | 6.0 | 0.00 | 0.84 | 0.84 | 87 | 1000.6 |
| 20260507222946 | 62 | 61 | 6.0 | 9.0 | 0.00 | 0.84 | 0.84 | 88 | 1000.6 |
| 20260507222443 | 62 | 175 | 4.0 | 7.0 | 0.00 | 0.84 | 0.84 | 88 | 1000.1 |
| 20260507221939 | 62 | 322 | 8.0 | 9.0 | 0.00 | 0.84 | 0.84 | 87 | 1000.0 |
| 20260507221436 | 62 | 78 | 1.0 | 2.0 | 0.00 | 0.84 | 0.84 | 87 | 999.7 |
| 20260507220932 | 62 | 307 | 4.0 | 6.0 | 0.00 | 0.84 | 0.84 | 87 | 999.4 |
| 20260507220430 | 62 | 227 | 3.0 | 3.0 | 0.00 | 0.84 | 0.84 | 87 | 999.4 |
| 20260507215927 | 62 | 191 | 2.0 | 2.0 | 0.00 | 0.84 | 0.84 | 87 | 999.5 |
| 20260507215423 | 62 | 192 | 2.0 | 3.0 | 0.00 | 0.84 | 0.84 | 88 | 999.3 |
| 20260507214921 | 62 | 21 | 1.0 | 2.0 | 0.00 | 0.84 | 0.84 | 89 | 999.2 |
| 20260507214418 | 62 | 273 | 6.0 | 7.0 | 0.00 | 0.84 | 0.84 | 88 | 999.3 |
| 20260507213913 | 62 | 259 | 2.0 | 3.0 | 0.00 | 0.84 | 0.84 | 88 | 999.4 |
| 20260507213410 | 62 | 236 | 1.0 | 1.0 | 0.00 | 0.84 | 0.84 | 89 | 998.8 |
| 20260507212907 | 62 | 325 | 2.0 | 3.0 | 0.00 | 0.84 | 0.84 | 89 | 998.3 |
| 20260507212403 | 62 | 327 | 3.0 | 3.0 | 0.00 | 0.84 | 0.84 | 89 | 998.5 |
| 20260507211900 | 62 | 326 | 3.0 | 4.0 | 0.00 | 0.84 | 0.84 | 89 | 998.7 |
| 20260507211356 | 63 | 156 | 4.0 | 8.0 | 0.00 | 0.84 | 0.84 | 89 | 998.8 |
| 20260507210853 | 63 | 253 | 5.0 | 7.0 | 0.00 | 0.84 | 0.84 | 91 | 999.1 |
| 20260507210350 | 63 | 317 | 2.0 | 2.0 | 0.00 | 0.84 | 0.84 | 91 | 999.1 |
| 20260507205847 | 63 | 134 | 1.0 | 2.0 | 0.00 | 0.84 | 0.84 | 91 | 999.3 |
| 20260507205344 | 63 | 259 | 2.0 | 3.0 | 0.00 | 0.84 | 0.84 | 90 | 999.4 |
| 20260507204840 | 63 | 308 | 6.0 | 8.0 | 0.00 | 0.84 | 0.84 | 90 | 999.4 |
| 20260507204337 | 63 | 322 | 5.0 | 6.0 | 0.00 | 0.84 | 0.84 | 90 | 999.4 |
| 20260507203835 | 63 | 331 | 5.0 | 7.0 | 0.00 | 0.84 | 0.84 | 90 | 999.1 |
| 20260507203333 | 63 | 275 | 2.0 | 2.0 | 0.00 | 0.84 | 0.84 | 90 | 999.3 |
| 20260507202828 | 63 | 309 | 7.0 | 9.0 | 0.00 | 0.84 | 0.84 | 90 | 999.4 |
| 20260507202325 | 63 | 318 | 2.0 | 4.0 | 0.00 | 0.84 | 0.84 | 90 | 999.2 |
| 20260507201821 | 63 | 234 | 2.0 | 2.0 | 0.00 | 0.84 | 0.84 | 90 | 999.3 |
| 20260507201317 | 63 | 329 | 4.0 | 6.0 | 0.00 | 0.84 | 0.84 | 89 | 999.4 |
| 20260507200813 | 64 | 195 | 2.0 | 2.0 | 0.00 | 0.84 | 0.84 | 89 | 999.3 |
| 20260507200309 | 64 | 303 | 1.0 | 2.0 | 0.00 | 0.84 | 0.84 | 89 | 999.6 |
| 20260507195805 | 64 | 358 | 2.0 | 3.0 | 0.00 | 0.84 | 0.84 | 89 | 999.6 |
| 20260507195305 | 64 | 190 | 1.0 | 2.0 | 0.00 | 0.84 | 0.84 | 89 | 999.8 |
| 20260507194800 | 64 | 305 | 1.0 | 2.0 | 0.00 | 0.84 | 0.84 | 89 | 999.7 |
| 20260507194256 | 64 | 342 | 2.0 | 3.0 | 0.00 | 0.84 | 0.84 | 88 | 999.6 |
| 20260507193753 | 64 | 295 | 4.0 | 6.0 | 0.00 | 0.84 | 0.84 | 88 | 1000.0 |
| 20260507193249 | 64 | 150 | 2.0 | 3.0 | 0.00 | 0.84 | 0.84 | 89 | 999.8 |
| 20260507192745 | 64 | 278 | 3.0 | 4.0 | 0.00 | 0.84 | 0.84 | 88 | 999.9 |
| 20260507192242 | 64 | 308 | 3.0 | 4.0 | 0.00 | 0.84 | 0.84 | 88 | 999.7 |
| 20260507191738 | 64 | 130 | 0.0 | 0.0 | 0.00 | 0.84 | 0.84 | 89 | 999.3 |
| 20260507191235 | 64 | 279 | 1.0 | 3.0 | 0.00 | 0.84 | 0.84 | 89 | 999.6 |
| 20260507190732 | 64 | 247 | 5.0 | 7.0 | 0.00 | 0.84 | 0.84 | 89 | 1000.1 |
| 20260507190231 | 64 | 30 | 3.0 | 4.0 | 0.00 | 0.84 | 0.84 | 89 | 1000.0 |
| 20260507185729 | 64 | 159 | 1.0 | 2.0 | 0.00 | 0.84 | 0.84 | 90 | 1000.0 |
| 20260507185225 | 64 | 356 | 3.0 | 3.0 | 0.00 | 0.84 | 0.84 | 89 | 1000.0 |
| 20260507184723 | 65 | 283 | 2.0 | 2.0 | 0.00 | 0.84 | 0.84 | 89 | 1000.4 |
| 20260507184221 | 66 | 311 | 1.0 | 2.0 | 0.00 | 0.84 | 0.84 | 90 | 1000.0 |
| 20260507183717 | 66 | 349 | 1.0 | 2.0 | 0.00 | 0.84 | 0.84 | 90 | 999.8 |
| 20260507183214 | 66 | 121 | 1.0 | 1.0 | 0.00 | 0.84 | 0.84 | 90 | 999.8 |
| 20260507182711 | 66 | 173 | 3.0 | 4.0 | 0.00 | 0.84 | 0.84 | 91 | 999.4 |
| 20260507182206 | 66 | 330 | 4.0 | 7.0 | 0.00 | 0.84 | 0.84 | 91 | 999.2 |
| 20260507181703 | 66 | 293 | 2.0 | 3.0 | 0.00 | 0.84 | 0.84 | 91 | 998.9 |
| 20260507181200 | 66 | 233 | 1.0 | 2.0 | 0.00 | 0.84 | 0.84 | 91 | 998.4 |
| 20260507180656 | 66 | 143 | 1.0 | 2.0 | 0.00 | 0.84 | 0.84 | 90 | 998.0 |
| 20260507180154 | 66 | 86 | 1.0 | 2.0 | 0.00 | 0.84 | 0.84 | 90 | 997.9 |
| 20260507175649 | 66 | 144 | 0.0 | 0.0 | 0.00 | 0.84 | 0.84 | 90 | 998.3 |
| 20260507175146 | 66 | 63 | 4.0 | 7.0 | 0.00 | 0.84 | 0.84 | 91 | 998.6 |
| 20260507174643 | 65 | 137 | 1.0 | 1.0 | 0.00 | 0.84 | 0.84 | 91 | 998.9 |
| 20260507174142 | 65 | 135 | 0.0 | 0.0 | 0.00 | 0.84 | 0.84 | 91 | 998.7 |
| 20260507173639 | 65 | 94 | 1.0 | 2.0 | 0.00 | 0.84 | 0.84 | 92 | 998.3 |
| 20260507173136 | 65 | 334 | 2.0 | 2.0 | 0.00 | 0.84 | 0.84 | 92 | 998.5 |
| 20260507172632 | 64 | 79 | 1.0 | 2.0 | 0.00 | 0.84 | 0.84 | 92 | 998.3 |
| 20260507172130 | 64 | 56 | 4.0 | 7.0 | 0.00 | 0.84 | 0.84 | 92 | 998.2 |
| 20260507171624 | 64 | 65 | 0.0 | 1.0 | 0.00 | 0.84 | 0.84 | 92 | 998.2 |
| 20260507171121 | 64 | 65 | 3.0 | 3.0 | 0.00 | 0.84 | 0.84 | 92 | 998.9 |
| 20260507170618 | 64 | 359 | 5.0 | 7.0 | 0.00 | 0.84 | 0.84 | 92 | 999.0 |
| 20260507170115 | 64 | 357 | 3.0 | 4.0 | 0.00 | 0.84 | 0.84 | 93 | 999.8 |
| 20260507165611 | 64 | 294 | 3.0 | 3.0 | 0.00 | 0.84 | 0.84 | 93 | 999.6 |
| 20260507165108 | 64 | 34 | 2.0 | 4.0 | 0.00 | 0.84 | 0.84 | 93 | 999.4 |
| 20260507164603 | 64 | 134 | 0.0 | 1.0 | 0.00 | 0.84 | 0.84 | 93 | 999.4 |
| 20260507164100 | 64 | 268 | 1.0 | 2.0 | 0.00 | 0.84 | 0.84 | 93 | 999.7 |
| 20260507163558 | 64 | 322 | 4.0 | 6.0 | 0.00 | 0.84 | 0.84 | 94 | 999.9 |
| 20260507163056 | 64 | 74 | 2.0 | 3.0 | 0.00 | 0.84 | 0.84 | 94 | 999.9 |
| 20260507162555 | 64 | 103 | 2.0 | 2.0 | 0.00 | 0.84 | 0.84 | 95 | 1000.0 |
| 20260507162053 | 64 | 308 | 5.0 | 6.0 | 0.00 | 0.84 | 0.84 | 94 | 999.9 |
| 20260507161549 | 64 | 133 | 0.0 | 0.0 | 0.00 | 0.84 | 0.84 | 95 | 999.7 |
| 20260507161046 | 64 | 306 | 3.0 | 3.0 | 0.00 | 0.84 | 0.84 | 95 | 1000.0 |
| 20260507160542 | 64 | 144 | 1.0 | 1.0 | 0.00 | 0.84 | 0.84 | 95 | 1000.4 |
| 20260507160038 | 64 | 108 | 1.0 | 2.0 | 0.00 | 0.84 | 0.84 | 94 | 1000.7 |
| 20260507155534 | 64 | 256 | 2.0 | 2.0 | 0.00 | 0.84 | 0.84 | 94 | 1000.8 |
| 20260507155031 | 64 | 135 | 0.0 | 0.0 | 0.07 | 0.84 | 0.84 | 94 | 1001.0 |
| 20260507154528 | 64 | 355 | 5.0 | 10.0 | 0.07 | 0.84 | 0.84 | 95 | 1001.2 |
| 20260507154025 | 64 | 317 | 5.0 | 6.0 | 0.00 | 0.83 | 0.83 | 95 | 1001.1 |
| 20260507153522 | 64 | 137 | 0.0 | 1.0 | 0.07 | 0.83 | 0.83 | 95 | 1001.1 |
| 20260507153018 | 64 | 192 | 1.0 | 1.0 | 0.07 | 0.83 | 0.83 | 95 | 1001.0 |
| 20260507152514 | 64 | 141 | 2.0 | 3.0 | 0.00 | 0.82 | 0.82 | 95 | 1001.1 |
| 20260507152011 | 64 | 140 | 0.0 | 1.0 | 0.00 | 0.82 | 0.82 | 96 | 1001.2 |
| 20260507151507 | 65 | 271 | 1.0 | 1.0 | 0.00 | 0.82 | 0.82 | 96 | 1001.6 |
| 20260507151004 | 65 | 244 | 2.0 | 2.0 | 0.00 | 0.82 | 0.82 | 96 | 1001.9 |
| 20260507150501 | 64 | 137 | 1.0 | 2.0 | 0.00 | 0.82 | 0.82 | 96 | 1002.0 |
| 20260507145957 | 64 | 106 | 1.0 | 1.0 | 0.00 | 0.82 | 0.82 | 96 | 1001.7 |
| 20260507145452 | 64 | 133 | 0.0 | 1.0 | 0.00 | 0.82 | 0.82 | 96 | 1001.6 |
| 20260507144950 | 64 | 106 | 1.0 | 2.0 | 0.00 | 0.82 | 0.82 | 96 | 1001.6 |
| 20260507144447 | 64 | 102 | 1.0 | 2.0 | 0.00 | 0.82 | 0.82 | 96 | 1001.2 |
| 20260507143944 | 64 | 112 | 1.0 | 1.0 | 0.00 | 0.82 | 0.82 | 96 | 1001.5 |
| 20260507143441 | 64 | 12 | 3.0 | 4.0 | 0.00 | 0.82 | 0.82 | 96 | 1001.6 |
| 20260507142938 | 64 | 66 | 0.0 | 1.0 | 0.00 | 0.82 | 0.82 | 97 | 1001.5 |
| 20260507142433 | 64 | 148 | 0.0 | 0.0 | 0.00 | 0.82 | 0.82 | 97 | 1001.1 |
| 20260507141931 | 64 | 130 | 0.0 | 0.0 | 0.00 | 0.82 | 0.82 | 96 | 1001.3 |
| 20260507141427 | 64 | 185 | 1.0 | 1.0 | 0.05 | 0.82 | 0.82 | 96 | 1001.6 |
| 20260507140924 | 64 | 315 | 2.0 | 4.0 | 0.05 | 0.82 | 0.82 | 96 | 1001.3 |
| 20260507140420 | 64 | 296 | 8.0 | 9.0 | 0.07 | 0.81 | 0.81 | 96 | 1001.1 |
| 20260507135918 | 64 | 149 | 0.0 | 0.0 | 0.12 | 0.81 | 0.81 | 96 | 1000.3 |
| 20260507135414 | 64 | 138 | 2.0 | 4.0 | 0.17 | 0.80 | 0.80 | 96 | 1000.8 |
| 20260507134912 | 64 | 171 | 1.0 | 1.0 | 0.19 | 0.79 | 0.79 | 96 | 1001.4 |
| 20260507134408 | 64 | 313 | 3.0 | 3.0 | 0.17 | 0.78 | 0.78 | 95 | 1001.9 |
| 20260507133904 | 65 | 344 | 2.0 | 6.0 | 0.12 | 0.76 | 0.76 | 95 | 1002.4 |
| 20260507133400 | 65 | 322 | 7.0 | 8.0 | 0.07 | 0.75 | 0.75 | 94 | 1002.4 |
| 20260507132859 | 65 | 290 | 4.0 | 6.0 | 0.00 | 0.74 | 0.74 | 93 | 1001.9 |
| 20260507132355 | 65 | 6 | 2.0 | 2.0 | 0.00 | 0.74 | 0.74 | 93 | 1002.0 |
| 20260507131852 | 65 | 0 | 3.0 | 4.0 | 0.00 | 0.74 | 0.74 | 94 | 1001.1 |
| 20260507131349 | 65 | 29 | 1.0 | 1.0 | 0.00 | 0.74 | 0.74 | 94 | 1000.2 |
| 20260507130846 | 65 | 143 | 0.0 | 0.0 | 0.00 | 0.74 | 0.74 | 94 | 1000.8 |
| 20260507130343 | 65 | 144 | 2.0 | 3.0 | 0.00 | 0.74 | 0.74 | 93 | 1001.2 |
| 20260507125842 | 65 | 202 | 3.0 | 4.0 | 0.00 | 0.74 | 0.74 | 93 | 1002.0 |
| 20260507125339 | 65 | 317 | 4.0 | 4.0 | 0.00 | 0.74 | 0.74 | 93 | 1002.3 |
| 20260507124836 | 65 | 0 | 3.0 | 3.0 | 0.00 | 0.74 | 0.74 | 93 | 1002.7 |
| 20260507124332 | 65 | 11 | 4.0 | 6.0 | 0.00 | 0.74 | 0.74 | 92 | 1002.9 |
| 20260507123831 | 65 | 41 | 1.0 | 2.0 | 0.00 | 0.74 | 0.74 | 93 | 1001.0 |
| 20260507123328 | 65 | 204 | 2.0 | 2.0 | 0.00 | 0.74 | 0.74 | 92 | 1001.6 |
| 20260507122824 | 65 | 150 | 1.0 | 1.0 | 0.00 | 0.74 | 0.74 | 92 | 1001.2 |
| 20260507122319 | 65 | 216 | 6.0 | 8.0 | 0.00 | 0.74 | 0.74 | 93 | 1000.7 |
| 20260507121816 | 64 | 311 | 2.0 | 6.0 | 0.00 | 0.74 | 0.74 | 94 | 999.9 |
| 20260507121312 | 64 | 164 | 1.0 | 2.0 | 0.00 | 0.74 | 0.74 | 94 | 999.1 |
| 20260507120808 | 64 | 266 | 2.0 | 3.0 | 0.00 | 0.74 | 0.74 | 94 | 999.3 |
| 20260507120305 | 64 | 332 | 5.0 | 7.0 | 0.00 | 0.74 | 0.74 | 94 | 999.4 |
| 20260507115801 | 64 | 311 | 3.0 | 4.0 | 0.00 | 0.74 | 0.74 | 94 | 998.8 |
| 20260507115256 | 64 | 2 | 1.0 | 2.0 | 0.00 | 0.74 | 0.74 | 95 | 998.1 |
| 20260507114752 | 64 | 352 | 2.0 | 2.0 | 0.00 | 0.74 | 0.74 | 95 | 997.5 |
| 20260507114250 | 64 | 76 | 1.0 | 1.0 | 0.00 | 0.74 | 0.74 | 95 | 997.7 |
| 20260507113748 | 64 | 194 | 0.0 | 1.0 | 0.00 | 0.74 | 0.74 | 95 | 998.0 |
| 20260507113244 | 64 | 138 | 3.0 | 4.0 | 0.00 | 0.74 | 0.74 | 95 | 997.9 |
| 20260507112742 | 64 | 121 | 3.0 | 6.0 | 0.00 | 0.74 | 0.74 | 95 | 998.2 |
| 20260507112238 | 64 | 40 | 2.0 | 4.0 | 0.00 | 0.74 | 0.74 | 95 | 998.5 |
| 20260507111737 | 64 | 39 | 2.0 | 3.0 | 0.00 | 0.74 | 0.74 | 95 | 998.1 |
| 20260507111233 | 64 | 126 | 1.0 | 2.0 | 0.00 | 0.74 | 0.74 | 94 | 998.0 |
| 20260507110728 | 64 | 27 | 1.0 | 2.0 | 0.05 | 0.74 | 0.74 | 95 | 997.3 |
| 20260507110225 | 64 | 36 | 1.0 | 3.0 | 0.05 | 0.74 | 0.74 | 95 | 996.9 |